Regional Weather Roundup
Issued by NWS

Home | Current Version | Previous Version | Text Only | Print | Product List | Glossary Off
Versions: 1 2 3 4 5 6 7 8 9 10 11 12 13 14 15 16 17 18 19 20 21 22 23 24 25 26 27 28 29 30 31 32 33 34 35 36 37 38 39 40 41 42 43 44 45 46 47 48 49 50

000
ASUS43 KBIS 081202
RWRND

NORTH DAKOTA REGIONAL WEATHER ROUNDUP
NATIONAL WEATHER SERVICE BISMARCK ND
600 AM CST THU DEC 08 2016

NOTE: "FAIR" INDICATES FEW OR NO CLOUDS BELOW 12,000 FEET WITH NO
SIGNIFICANT WEATHER AND/OR OBSTRUCTIONS TO VISIBILITY.


NDZ001>003-009>011-017-081300-
NORTHWEST NORTH DAKOTA

CITY           SKY/WX    TMP DP  RH WIND       PRES   REMARKS
WILLISTON      CLOUDY     1  -6  72 W7        30.63S WCI -12
6HR MIN TEMP:  -2; 6HR MAX TEMP:   1;

MINOT          PTCLDY     2  -4  76 W14       30.56R WCI -16
$$

NDZ018>021-031>035-040>046-081300-
SOUTHWEST NORTH DAKOTA

CITY           SKY/WX    TMP DP  RH WIND       PRES   REMARKS
BISMARCK       CLOUDY     4  -1  80 NW17G28   30.57R WCI -16
6HR MIN TEMP:   4; 6HR MAX TEMP:   5; 6HR PCP:  0.02;

DICKINSON      CLEAR     -8 -12  83 NW14      30.53R WCI -29
GARRISON         N/A      1  -4  79 NW24      30.54R WCI -22
6HR MIN TEMP:   1; 6HR MAX TEMP:   4;

HETTINGER ARPT CLEAR     -6 -12  75 NW13      30.55R WCI -25
$$

NDZ004>008-012>016-024-026-027-054-081300-
NORTHEAST NORTH DAKOTA

CITY           SKY/WX    TMP DP  RH WIND       PRES   REMARKS
GRAND FORKS    LGT SNOW  16  10  77 NW24      30.41R WCI  -2
GRND FRKS AFB  FLURRIES  15   9  78 N18       30.41R WCI  -2
DEVILS LAKE    FLURRIES   7   3  84 NW18      30.45R WCI -12
$$

NDZ022-023-025-028>030-036>039-047>053-081300-
SOUTHEAST NORTH DAKOTA

CITY           SKY/WX    TMP DP  RH WIND       PRES   REMARKS
FARGO          CLOUDY    17  10  74 NW22      30.40R WCI   0
6HR MIN TEMP:  16; 6HR MAX TEMP:  18; 6HR PCP: TRACE;

JAMESTOWN      CLOUDY     6   2  83 NW29G35   30.45R BLWGSNOWWCI -17
$$





USA.gov is the U.S. government's official web portal to all federal, state and local government web resources and services.